Location: Buckeye Ditch
(40.9104°N, 122.9517°W)
Time: 13:38:50
(UTC+00:00)

ACS3 Solar Sail - Visible Passes

Search period start: 21 June 2024 00:00
Search period end: 01 July 2024 00:00
Orbit: 992 x 1024 km, 97.4° (Epoch: 20 June)

Date Brightness Start Highest point End Pass type
(mag) Time Alt. Az. Time Alt. Az. Time Alt. Az.
21 Jun 5.6 04:52:46 13° SE 04:57:43 37° ENE 05:03:21 10° N visible
21 Jun 6.0 06:38:07 19° SSW 06:41:48 34° W 06:47:25 10° NNW visible
22 Jun 4.9 05:27:34 20° SSE 05:31:56 70° ENE 05:38:08 10° N visible
22 Jun 6.8 07:12:55 11° SW 07:16:35 18° W 07:20:38 10° NW visible
23 Jun 6.3 04:18:20 10° ESE 04:22:48 21° ENE 04:27:15 10° NNE visible
23 Jun 5.1 06:02:22 23° S 06:06:21 64° W 06:12:32 10° NNW visible
24 Jun 5.6 04:51:49 13° SE 04:56:51 38° ENE 05:02:31 10° N visible
24 Jun 6.1 06:37:10 18° SSW 06:40:57 33° W 06:46:31 10° NNW visible
25 Jun 4.9 05:26:37 20° SSE 05:31:05 72° ENE 05:37:17 10° N visible
25 Jun 6.9 07:11:57 10° SW 07:15:45 17° W 07:19:41 10° NW visible
26 Jun 6.3 04:17:23 10° ESE 04:21:55 22° ENE 04:26:28 10° NNE visible
26 Jun 5.1 06:01:25 22° S 06:05:30 62° W 06:11:40 10° NNW visible
27 Jun 5.5 04:50:52 13° SE 04:55:59 39° ENE 05:01:40 10° N visible
27 Jun 6.1 06:36:13 17° SW 06:40:06 32° W 06:45:37 10° NNW visible
28 Jun 4.8 05:25:40 19° SSE 05:30:13 74° ENE 05:36:26 10° N visible
28 Jun 6.9 07:11:09 10° SW 07:14:55 16° W 07:18:42 10° NW visible
29 Jun 6.2 04:16:26 10° ESE 04:21:03 22° ENE 04:25:39 10° NNE visible
29 Jun 5.2 06:00:28 21° S 06:04:39 60° W 06:10:48 10° NNW visible
30 Jun 5.5 04:49:56 13° SE 04:55:06 41° ENE 05:00:50 10° N visible
30 Jun 6.2 06:35:16 16° SW 06:39:16 31° W 06:44:43 10° NNW visible
